[[{"header":{"parameterUnit":"m.s-1","parameterCategory":1,"la1":30.2991,"la2":30.254,"lo1":-89.0895,"lo2":-89.0444,"dy":0.0017,"dx":0.0017,"nx":28,"ny":28,"refTime":"2025-11-27T09:00:00:Z","depth":0,"parameterNumber":2,"parameterNumberName":"U-component_of_WINDS"},"data":[0,0,0,0,0,0,0,0,0,0,0,0,0,0,0,0,0,0,0,0,0,0,0,0,0,0,0,0,0,0,0,0,0,0,0,0,0,0,0,0,0,0,0,0,0,0,0,0,0,0,0,0,0,0,0,0,0,0,-1.0013,-1.0014,0,-1.0073,-1.0073,-1.0074,-1.0022,-1.0019,-1.0017,-1.0015,-1.0078,-1.0082,-1.0085,0,0,0,0,0,0,0,0,0,0,0,0,0,-0.9855,-0.9858,-1.0013,-1.0014,-1.0015,-1.0073,-1.0073,-1.0074,-1.0022,-1.0019,-1.0017,-1.0014,-1.0077,-1.0081,-1.0086,0,0,0,0,0,0,0,0,0,0,0,0,0,-0.992,-0.9859,-1.0013,-0.9995,-0.9994,-1.0072,-1.0073,-1.0074,-1.0023,-1.0019,-1.0016,-1.0013,-1.0075,-1.0081,-1.0086,-1.0185,0,0,-1.0103,-1.0106,0,0,0,0,0,0,0,0,-0.9916,-0.9926,-0.9997,-0.9997,-0.9996,-1.0036,-1.0041,-1.0112,-1.0023,-1.0012,-1.0015,-1.0011,-1.0067,-1.0073,-1.0091,-1.0188,-1.0191,-1.0104,-1.0107,-1.0109,-1.0111,0,0,0,0,0,0,0,-0.9912,-0.9923,-1.0037,-0.9998,-0.9998,-0.9985,-0.9991,-1.0054,-1.0057,-1.0013,-1.0009,-1.0017,-1.0066,-1.0086,-1.0092,-1.0192,-1.0103,-1.0108,-1.0112,-1.0114,-1.0372,-1.0376,0,0,0,0,0,0,-0.9909,-0.992,-1.0035,-1.0038,-0.9947,-0.999,-0.9997,-1.0027,-1.0056,-1.0057,-1.0019,-1.0014,-1.0078,-1.0086,-1.0094,-1.0213,-1.0109,-1.0114,-1.0118,-1.0369,-1.0373,-1.0377,0,0,0,0,0,0,-0.9906,-0.992,-1.0032,-0.9978,-0.9991,-0.9997,-1.0031,-1.003,-1.005,-1.0061,-1.0061,-1.0039,-1.0076,-1.0087,-1.0163,-1.0214,-1.0117,-1.0122,-1.0365,-1.037,-1.0375,-1.045,0,0,0,0,0,0,-0.9902,-0.9919,-0.9957,-0.9979,-0.9995,-1.01,-1.0034,-1.0033,-1.0059,-1.0053,-1.008,-1.0082,-1.0074,-1.0155,-1.0168,-1.022,-1.0126,-1.036,-1.0367,-1.0373,-1.0443,-1.0457,-1.0469,0,0,0,0,0,-0.9896,-0.9976,-0.9959,-0.9973,-1.0042,-1.0103,-1.0112,-1.0101,-1.0063,-1.0102,-1.0109,-1.0081,-1.0206,-1.0163,-1.0178,-1.0232,-1.0357,-1.0365,-1.0373,-1.0437,-1.0455,-1.0469,0,0,0,0,0,0,-0.996,-0.9979,-0.996,-1.0049,-1.0075,-1.0094,-1.0142,-1.012,-1.0158,-1.015,-1.0136,-1.0142,-1.0223,-1.0234,-1.0187,-1.0329,-1.0275,-1.0286,-1.0319,-1.0336,-1.0349,-1.0345,-1.0131,0,0,0,0,0,-0.9985,-1.0033,-1.0046,-1.0124,-1.0137,-1.0137,-1.0164,-1.0153,-1.0179,-1.019,-1.0203,-1.023,-1.0275,-1.0306,-1.0348,-1.0443,-1.0449,-1.0488,-1.0501,-1.0512,-1.0523,-1.0574,-1.0592,-1.0403,-1.0403,-1.0403,0,0,-1.0036,-1.0052,-1.0083,-1.0137,-1.0155,-1.0206,-1.0147,-1.0203,-1.0241,-1.0199,-1.0272,-1.0282,-1.0311,-1.0397,-1.0436,-1.041,-1.0575,-1.0522,-1.053,-1.0535,-1.0584,-1.0602,-1.0618,-1.0408,-1.0407,-1.0407,0,0,-1.0156,-1.0172,-1.0239,-1.0258,-1.0287,-1.0286,-1.0302,-1.0324,-1.0329,-1.0401,-1.0371,-1.0415,-1.0493,-1.0516,-1.0537,-1.0663,-1.0639,-1.0677,-1.0747,-1.0798,-1.0813,-1.0826,-1.0872,-1.0889,-1.0687,-1.0687,-1.0687,0,-1.0217,-1.0291,-1.0276,-1.0334,-1.0359,-1.0322,-1.039,-1.0409,-1.045,-1.0468,-1.0437,-1.0534,-1.0551,-1.0643,-1.0673,-1.0691,-1.071,-1.0675,-1.0811,-1.0825,-1.0837,-1.0881,-1.0898,-1.0692,-1.0691,-1.0691,-1.069,0,-1.0365,-1.0417,-1.0467,-1.0508,-1.0537,-1.06,-1.0595,-1.0627,-1.0613,-1.0615,-1.0689,-1.0708,-1.0753,-1.0773,-1.0761,-1.0863,-1.0846,-1.0813,-1.076,-1.086,-1.0901,-1.0918,-1.0698,-1.0697,-1.0695,-1.0694,0,0,-1.053,-1.0559,-1.0578,-1.0596,-1.0624,-1.0664,-1.0724,-1.0768,-1.0796,-1.0825,-1.0876,-1.0942,-1.0912,-1.0936,-1.0925,-1.0969,-1.1069,-1.0931,-1.0932,-1.0958,-1.1184,-1.1211,-1.123,-1.1052,-1.1055,-1.1058,-1.1183,0,-1.0653,-1.0758,-1.0745,-1.0846,-1.0895,-1.0859,-1.0911,-1.0934,-1.0937,-1.0979,-1.0982,-1.103,-1.0986,-1.1,-1.1042,-1.1048,-1.1115,-1.1039,-1.1101,-1.1103,-1.1098,-1.1252,-1.128,-1.1397,-1.1198,-1.1201,-1.1203,0,-1.081,-1.0844,-1.095,-1.097,-1.0989,-1.1037,-1.1076,-1.1115,-1.114,-1.1139,-1.1166,-1.1146,-1.1207,-1.115,-1.1234,-1.1182,-1.1206,-1.1213,-1.1217,-1.1225,-1.1162,-1.1266,-1.1434,-1.1453,-1.1228,-1.1226,-1.1224,0,-1.0923,-1.0994,-1.1067,-1.1083,-1.1107,-1.1142,-1.1153,-1.1175,-1.1202,-1.1235,-1.1252,-1.1292,-1.1315,-1.1347,-1.1339,-1.1297,-1.1425,-1.1367,-1.1427,-1.1428,-1.1459,-1.1457,-1.1635,-1.147,-1.147,-1.1469,-1.1469,0,-1.1063,-1.1129,-1.1118,-1.1163,-1.1236,-1.122,-1.1293,-1.13,-1.1319,-1.1365,-1.1336,-1.138,-1.1365,-1.1408,-1.1402,-1.1473,-1.1483,-1.1485,-1.1483,-1.1489,-1.1489,-1.1507,-1.15,-1.1474,-1.1473,-1.1472,-1.1471,0,-1.1202,-1.1197,-1.1274,-1.129,-1.1295,-1.1349,-1.1363,-1.1405,-1.1404,-1.1463,-1.1476,-1.1476,-1.1525,-1.1519,-1.1574,-1.1569,-1.1659,-1.1645,-1.1651,-1.1649,-1.171,-1.1706,-1.1908,-1.1935,-1.175,-1.1751,-1.1753,0,-1.1293,-1.1343,-1.1364,-1.1392,-1.1407,-1.1452,-1.1479,-1.1464,-1.1494,-1.1525,-1.1564,-1.1609,-1.1646,-1.1726,-1.1731,-1.1772,-1.1762,-1.183,-1.1768,-1.1773,-1.1765,-1.1763,-1.1769,-1.1843,-1.1845,-1.1847,-1.1848,0,-1.1456,-1.145,-1.149,-1.1529,-1.1561,-1.1591,-1.1618,-1.1643,-1.163,-1.1665,-1.1714,-1.1742,-1.1797,-1.1844,-1.1883,-1.1894,-1.1871,-1.1867,-1.1884,-1.1892,-1.1894,-1.1895,-1.1687,-1.1863,-1.1862,-1.1861,-1.186,-1.1859,-1.1575,-1.1618,-1.164,-1.1685,-1.1703,-1.1728,-1.1769,-1.1773,-1.1814,-1.1858,-1.1846,-1.1902,-1.1924,-1.1974,-1.1989,-1.2033,-1.2008,-1.2032,-1.2039,-1.2045,-1.2054,-1.1884,-1.204,-1.2039,-1.2039,-1.2039,-1.2038,0,-1.1738,-1.1749,-1.1791,-1.1829,-1.1864,-1.1836,-1.1864,-1.1896,-1.1945,-1.1968,-1.2003,-1.206,-1.2104,-1.2112,-1.2154,-1.2188,-1.2177,-1.2199,-1.2198,-1.2202,-1.2072,-1.2055,-1.2207,-1.2207,-1.2207,-1.2207,-1.2207,-1.2207,-1.1827,-1.1899,-1.1896,-1.1976,-1.1987,-1.2041,-1.206,-1.2083,-1.2101,-1.2165,-1.2202,-1.2206,-1.2223,-1.2265,-1.2305,-1.2306,-1.2324,-1.2351,-1.2348,-1.2227,-1.2211,-1.2195,-1.2178,-1.2354,-1.2354,-1.2474,-1.2475,-1.2476]},{"header":{"parameterUnit":"m.s-1","parameterCategory":1,"la1":30.2991,"la2":30.254,"lo1":-89.0895,"lo2":-89.0444,"dy":0.0017,"dx":0.0017,"nx":28,"ny":28,"refTime":"2025-11-27T09:00:00:Z","depth":0,"parameterNumber":3,"parameterNumberName":"V-component_of_WINDS"},"data":[0,0,0,0,0,0,0,0,0,0,0,0,0,0,0,0,0,0,0,0,0,0,0,0,0,0,0,0,0,0,0,0,0,0,0,0,0,0,0,0,0,0,0,0,0,0,0,0,0,0,0,0,0,0,0,0,0,0,-6.6841,-6.6843,0,-6.6992,-6.6994,-6.6996,-6.6919,-6.6915,-6.6911,-6.6907,-6.7056,-6.7063,-6.7071,0,0,0,0,0,0,0,0,0,0,0,0,0,-6.648,-6.6487,-6.6841,-6.6843,-6.6845,-6.6992,-6.6994,-6.6996,-6.692,-6.6915,-6.691,-6.6905,-6.7053,-6.7062,-6.7071,0,0,0,0,0,0,0,0,0,0,0,0,0,-6.6634,-6.6489,-6.6841,-6.6825,-6.6825,-6.6992,-6.6994,-6.6997,-6.6921,-6.6915,-6.6909,-6.6903,-6.705,-6.7061,-6.7073,-6.7262,0,0,-6.7108,-6.7112,0,0,0,0,0,0,0,0,-6.6625,-6.6647,-6.6825,-6.6826,-6.6826,-6.6931,-6.6921,-6.7085,-6.6922,-6.6884,-6.6907,-6.69,-6.7018,-6.7032,-6.7073,-6.7269,-6.7275,-6.7109,-6.7115,-6.712,-6.7124,0,0,0,0,0,0,0,-6.6615,-6.664,-6.69,-6.6828,-6.6829,-6.6808,-6.6823,-6.6952,-6.6982,-6.6887,-6.6882,-6.6901,-6.7018,-6.7062,-6.7076,-6.7278,-6.7108,-6.7118,-6.7125,-6.713,-6.7635,-6.7641,0,0,0,0,0,0,-6.6606,-6.6632,-6.6896,-6.6905,-6.6709,-6.6819,-6.6836,-6.6903,-6.6981,-6.6987,-6.6906,-6.6897,-6.7046,-6.7063,-6.7081,-6.7308,-6.712,-6.7131,-6.7138,-6.7629,-6.7637,-6.7644,0,0,0,0,0,0,-6.6598,-6.663,-6.689,-6.6767,-6.6799,-6.6832,-6.6907,-6.6909,-6.6954,-6.6995,-6.7,-6.6947,-6.7042,-6.7065,-6.7218,-6.7312,-6.7136,-6.7147,-6.7621,-6.7631,-6.764,-6.7764,0,0,0,0,0,0,-6.6588,-6.6628,-6.6702,-6.677,-6.6806,-6.7027,-6.6913,-6.6916,-6.6975,-6.6964,-6.7035,-6.704,-6.7039,-6.7201,-6.7229,-6.7325,-6.7156,-6.7613,-6.7625,-6.7637,-6.7751,-6.7776,-6.7798,0,0,0,0,0,-6.6576,-6.6729,-6.6706,-6.6738,-6.6899,-6.7032,-6.7052,-6.7049,-6.6983,-6.7056,-6.7083,-6.7038,-6.7297,-6.7218,-6.7248,-6.7349,-6.7607,-6.7622,-6.7636,-6.7741,-6.7771,-6.7797,0,0,0,0,0,0,-6.667,-6.6738,-6.6713,-6.6894,-6.6958,-6.7019,-6.7112,-6.7082,-6.7165,-6.7151,-6.7142,-6.7158,-6.7317,-6.7348,-6.7258,-6.7536,-6.7441,-6.7463,-6.751,-6.754,-6.7563,-6.7552,-6.7165,0,0,0,0,0,-6.6712,-6.6816,-6.6869,-6.7023,-6.7057,-6.7079,-6.7137,-6.7129,-6.7194,-6.722,-6.7258,-6.7321,-6.7416,-6.748,-6.757,-6.7755,-6.7768,-6.7839,-6.7862,-6.7881,-6.79,-6.7999,-6.8031,-6.7692,-6.7692,-6.7692,0,0,-6.6799,-6.6849,-6.6915,-6.7043,-6.7092,-6.7199,-6.7102,-6.7219,-6.7297,-6.7237,-6.7385,-6.7415,-6.7484,-6.7654,-6.7731,-6.7685,-6.7997,-6.79,-6.7915,-6.7923,-6.8018,-6.805,-6.8078,-6.7702,-6.77,-6.7699,0,0,-6.7013,-6.7062,-6.7196,-6.7247,-6.7323,-6.7337,-6.7369,-6.7435,-6.7453,-6.7601,-6.7559,-6.765,-6.7815,-6.7866,-6.7914,-6.8147,-6.8109,-6.8176,-6.8298,-6.8395,-6.8422,-6.8446,-6.8528,-6.8558,-6.8195,-6.8195,-6.8195,0,-6.7111,-6.7272,-6.7268,-6.7388,-6.7445,-6.7398,-6.7532,-6.7581,-6.7682,-6.7721,-6.7669,-6.7875,-6.7918,-6.8099,-6.8156,-6.8197,-6.8232,-6.8168,-6.8419,-6.8443,-6.8465,-6.8543,-6.8575,-6.8203,-6.8202,-6.8201,-6.82,0,-6.7389,-6.7501,-6.76,-6.7701,-6.7768,-6.7895,-6.7908,-6.7977,-6.7963,-6.7981,-6.8132,-6.8182,-6.8282,-6.8324,-6.8311,-6.8503,-6.8472,-6.842,-6.8325,-6.8505,-6.8579,-6.8609,-6.8214,-6.8211,-6.8209,-6.8207,0,0,-6.7667,-6.7764,-6.7801,-6.7846,-6.7926,-6.8011,-6.8134,-6.8234,-6.8293,-6.8363,-6.8466,-6.8606,-6.8558,-6.8613,-6.8604,-6.869,-6.887,-6.8626,-6.8627,-6.867,-6.9085,-6.9125,-6.916,-6.8846,-6.8851,-6.8856,-6.9079,0,-6.7886,-6.8106,-6.8105,-6.8306,-6.8409,-6.8365,-6.8472,-6.8532,-6.8553,-6.8641,-6.8662,-6.8762,-6.8691,-6.8723,-6.8806,-6.8831,-6.8954,-6.8815,-6.8939,-6.8944,-6.8924,-6.9198,-6.9241,-6.9449,-6.9108,-6.9113,-6.9117,0,-6.8172,-6.8254,-6.8467,-6.8532,-6.8575,-6.8672,-6.8763,-6.8848,-6.8914,-6.8923,-6.8984,-6.8962,-6.9085,-6.8987,-6.9156,-6.9062,-6.9112,-6.9132,-6.914,-6.9152,-6.9041,-6.9217,-6.9516,-6.9547,-6.9162,-6.9158,-6.9155,0,-6.8353,-6.8517,-6.8665,-6.8705,-6.8785,-6.8854,-6.889,-6.895,-6.901,-6.9088,-6.9126,-6.9217,-6.9267,-6.9337,-6.934,-6.9268,-6.951,-6.9412,-6.952,-6.952,-6.9573,-6.957,-6.9884,-6.9606,-6.9605,-6.9604,-6.9604,0,-6.8599,-6.873,-6.8748,-6.884,-6.8985,-6.8982,-6.9125,-6.9154,-6.9208,-6.9303,-6.9269,-6.9358,-6.9356,-6.9446,-6.9449,-6.9588,-6.961,-6.962,-6.9619,-6.9623,-6.9622,-6.9656,-6.9642,-6.9613,-6.9611,-6.9609,-6.9608,0,-6.8826,-6.8844,-6.9002,-6.9065,-6.9084,-6.9188,-6.9241,-6.9327,-6.9344,-6.9464,-6.9492,-6.9518,-6.9622,-6.9632,-6.9752,-6.9753,-6.9922,-6.9905,-6.9901,-6.9898,-7.0005,-6.9995,-7.0353,-7.0399,-7.0091,-7.0093,-7.0096,0,-6.8982,-6.9083,-6.9157,-6.9219,-6.9259,-6.9359,-6.942,-6.942,-6.9485,-6.9567,-6.9643,-6.9744,-6.9825,-6.9993,-7.0022,-7.0113,-7.0098,-7.0217,-7.0111,-7.0113,-7.01,-7.0094,-7.0104,-7.0237,-7.0241,-7.0244,-7.0246,0,-6.9256,-6.926,-6.9351,-6.9445,-6.952,-6.9593,-6.9662,-6.9714,-6.9721,-6.9795,-6.9903,-6.9966,-7.0089,-7.019,-7.028,-7.0313,-7.0281,-7.0279,-7.0309,-7.0314,-7.0308,-7.0313,-6.9957,-7.0271,-7.0268,-7.0266,-7.0265,-7.0264,-6.9453,-6.954,-6.9606,-6.9708,-6.976,-6.9825,-6.9909,-6.9937,-7.0028,-7.013,-7.0123,-7.0241,-7.0303,-7.0421,-7.0462,-7.0553,-7.0512,-7.0556,-7.0567,-7.0577,-7.0589,-7.0293,-7.0569,-7.0568,-7.0567,-7.0567,-7.0566,0,-6.9725,-6.9766,-6.986,-6.9958,-7.0038,-7.0002,-7.0076,-7.0145,-7.025,-7.0312,-7.0393,-7.0515,-7.0612,-7.0649,-7.0743,-7.0809,-7.0796,-7.0834,-7.0829,-7.0837,-7.0619,-7.0584,-7.0842,-7.0842,-7.0842,-7.0842,-7.0842,-7.0842,-6.9877,-7.0023,-7.0034,-7.0205,-7.0243,-7.0361,-7.0406,-7.0465,-7.0515,-7.0654,-7.0735,-7.0759,-7.081,-7.0908,-7.0995,-7.1003,-7.1039,-7.1083,-7.1084,-7.088,-7.0852,-7.0826,-7.0793,-7.1091,-7.1091,-7.1295,-7.1296,-7.1298]}]]